CAPE
0 0 0 0 0 0 0 38 5 22 12 47 44 43 69 97 89 114 366 290 480 577 595 665 893 1147 1216 1227 1245 1313 1213 1000 983 953 915 835 687 545 530 666 755 717 728 638 552 516 540 590 637
0 0 0 0 0 0 1 32 17 11 10 21 48 21 62 283 403 408 368 382 481 595 611 692 993 1128 1198 1165 1189 1159 1056 1005 1021 1035 940 687 503 435 596 711 638 482 331 277 262 213 189 226 316
0 0 0 0 0 0 9 30 9 0 0 2 17 28 41 342 348 392 384 503 558 633 695 840 987 1122 1190 1207 1270 1303 1293 1314 1318 1056 660 488 472 572 588 390 253 126 71 44 27 27 36 47 75
0 0 0 2 0 0 1 10 0 0 0 0 0 30 131 280 526 537 584 519 547 697 788 937 1002 1156 1261 1217 1118 1116 1116 1111 1111 985 588 507 533 379 226 149 64 22 2 0 0 0 0 0 14
0 0 11 6 31 20 34 63 0 5 4 0 0 7 57 582 695 606 563 496 598 732 832 835 850 976 1124 1084 940 1028 1018 1019 1004 931 810 539 344 206 104 49 14 0 0 0 0 0 0 0 0
0 1 15 64 9 18 0 1 4 44 26 7 34 84 160 666 731 389 359 500 616 671 597 523 648 734 804 859 795 758 809 837 901 891 795 443 354 256 99 33 1 0 0 0 0 0 0 0 0
0 0 0 11 4 3 0 7 0 37 8 6 75 33 7 318 123 89 124 159 174 195 202 276 353 444 454 425 400 435 587 660 721 734 625 527 378 299 201 44 0 0 0 0 0 0 0 0 0
0 0 0 0 0 0 0 1 1 63 74 93 68 7 0 9 0 0 0 0 0 0 14 17 59 74 88 157 230 276 292 286 375 372 271 217 205 190 162 64 13 0 0 0 0 0 0 0 0
0 0 0 1 8 0 0 0 0 69 104 51 55 8 0 0 0 0 0 0 1 2 0 0 0 0 2 35 161 273 301 210 172 245 226 115 125 54 19 17 0 0 0 0 0 2 0 0 0
0 0 0 0 0 0 0 0 0 11 67 78 52 31 9 0 0 0 0 7 35 36 2 20 12 0 0 7 83 45 85 193 226 247 239 167 201 224 74 51 82 60 8 14 25 34 20 5 0
0 0 0 0 0 0 0 0 0 22 63 99 82 76 75 54 8 0 6 73 114 75 35 61 107 0 0 19 44 36 186 293 310 347 274 169 193 254 105 23 0 0 0 0 0 0 0 0 0
0 0 0 0 0 0 0 0 0 0 39 118 83 129 107 73 0 0 0 73 125 144 105 55 205 63 30 7 90 40 188 409 459 195 39 0 0 0 0 0 0 0 0 0 0 0 0 0 0
0 0 0 0 0 0 0 0 0 0 66 173 193 201 168 9 0 0 4 4 190 209 226 233 63 49 56 99 101 143 125 493 138 43 0 0 0 0 0 0 0 0 0 0 0 0 0 0 0
0 0 0 0 0 0 0 0 0 0 174 282 307 277 177 31 37 26 47 42 174 363 357 447 169 43 78 60 74 103 48 56 40 1 0 0 0 0 0 0 0 0 0 0 0 0 0 0 0
0 0 0 0 0 0 0 0 0 0 39 362 375 319 183 143 137 109 91 137 176 541 522 602 275 100 52 93 69 4 0 37 0 0 0 0 0 0 0 0 0 0 0 0 0 0 0 0 0
0 0 0 0 0 0 0 0 0 0 0 175 313 272 172 155 190 223 194 186 170 680 736 471 282 68 79 122 27 72 1 0 0 0 0 0 0 0 0 0 0 0 0 0 0 0 0 0 0
0 0 1 2 0 0 0 0 0 0 0 0 37 123 109 96 212 289 292 192 395 724 780 457 272 206 91 54 26 10 6 0 0 0 0 0 0 0 0 0 0 0 0 0 0 0 0 0 0
0 0 0 0 0 0 0 0 0 0 0 0 0 0 0 0 75 278 271 152 658 697 664 395 265 74 35 87 44 12 0 15 11 0 0 0 0 7 16 13 6 0 0 0 0 0 0 0 0
0 0 0 0 0 0 0 0 0 0 0 0 0 0 0 0 20 192 320 120 560 622 426 117 76 50 27 29 26 9 13 18 10 0 0 4 4 4 0 0 0 0 0 0 0 0 0 0 0
0 0 0 0 0 0 0 0 0 0 0 0 0 0 0 9 63 102 86 168 308 191 60 30 8 11 14 18 28 52 36 44 29 3 13 10 1 0 0 0 0 0 0 0 0 0 0 0 0
0 0 0 0 0 0 0 0 0 0 0 0 0 4 24 42 80 118 96 52 84 72 19 2 0 0 6 19 24 20 11 5 1 0 0 0 0 0 0 0 0 0 0 0 0 0 0 0 0
0 0 0 0 0 0 0 0 0 0 0 0 0 1 44 112 96 44 35 26 32 0 0 0 0 0 0 0 0 0 0 0 0 0 0 0 0 0 0 0 0 0 0 0 0 0 0 5 2
0 0 0 0 0 0 0 0 0 0 0 0 0 0 0 0 0 0 0 0 0 0 0 0 0 0 0 0 0 0 0 0 0 0 0 0 2 2 0 0 0 0 0 0 0 0 0 0 3
0 0 0 0 0 0 0 0 0 0 0 0 0 0 0 0 0 0 0 0 0 0 0 0 0 0 0 0 0 0 0 0 0 5 14 14 2 11 4 0 0 0 0 0 0 0 0 2 6
0 0 0 0 18 2 1 2 0 0 1 0 0 0 0 0 0 0 0 0 0 0 0 0 0 0 0 0 0 0 0 3 15 21 18 16 2 7 0 0 0 0 0 0 0 0 0 0 1
0 0 0 0 17 16 0 0 0 1 2 11 4 0 0 0 0 0 0 0 0 0 0 0 2 6 0 0 0 2 12 8 19 29 29 16 3 0 0 0 0 0 0 0 0 0 1 12 0
0 0 0 0 0 0 0 0 0 0 0 0 1 0 0 0 0 0 0 0 0 0 3 14 11 0 0 0 0 0 0 0 0 0 0 0 0 0 0 0 0 0 0 0 2 1 0 2 10
0 0 0 0 0 0 0 0 2 0 5 0 0 0 0 0 0 0 0 0 0 0 0 0 2 1 0 0 0 0 0 0 0 0 0 0 0 0 0 0 0 0 0 0 0 0 0 0 0
0 0 0 0 0 0 0 0 0 0 0 0 0 0 0 0 0 0 0 0 0 0 0 0 0 0 0 0 0 0 0 0 3 0 1 12 14 10 0 18 6 0 0 0 0 0 0 0 0
0 0 0 0 0 0 0 0 0 0 6 2 5 0 0 0 0 2 0 0 0 0 0 0 0 0 0 0 0 2 4 2 15 14 28 30 22 7 7 0 0 0 0 0 0 0 0 0 0
CIN
0 0 0 0 0 0 0 -7 -8 -7 -7 -12 -150 -116 -75 -71 -51 -97 -42 -38 -72 -52 -49 -54 -39 -8 0 0 0 0 0 -8 -10 -18 -35 -55 -84 -107 -97 -54 -37 -40 -39 -41 -55 -58 -70 -69 -67
0 0 0 0 0 0 -8 -11 -10 -20 -11 -10 -12 -56 -239 -122 -123 -90 -53 -58 -65 -76 -61 -45 -21 -5 0 -3 -5 -11 -17 -23 -6 -6 -19 -72 -108 -117 -63 -38 -52 -85 -124 -132 -136 -133 -144 -132 -111
0 0 0 0 0 0 -8 -3 -7 0 0 -3 -7 -24 -57 -83 -57 -61 -92 -44 -54 -43 -37 -31 -30 -16 -10 -11 -8 -3 -0 0 0 -9 -87 -116 -110 -67 -56 -129 -188 -241 -259 -272 -282 -272 -288 -230 -219
0 0 0 0 -1 0 -12 -17 -0 0 0 0 0 -276 -193 -64 -67 -83 -52 -71 -82 -31 -28 -34 -31 -10 -6 -7 -13 -9 -11 -4 -5 -18 -86 -104 -90 -133 -191 -224 -277 -324 -327 0 0 0 0 -9 -294
0 0 -7 -12 -26 -28 -17 -2 0 -42 -76 0 0 -175 -229 -49 -76 -51 -17 -119 -99 -32 -31 -43 -49 -39 -21 -13 -30 -7 -7 -16 -29 -33 -27 -82 -131 -179 -247 -293 -356 0 0 0 0 0 0 0 0
0 -1 -3 -1 -4 -4 -3 0 -50 -102 -108 -131 -118 -159 -117 -21 -39 -62 -127 -101 -99 -91 -96 -124 -104 -98 -72 -62 -76 -84 -68 -62 -48 -32 -46 -113 -135 -171 -241 -297 -80 0 0 0 0 0 0 0 0
0 0 0 -26 -6 -1 0 -3 0 -93 -97 -65 -139 -239 -30 -39 -68 -223 -233 -244 -234 -244 -253 -240 -209 -184 -191 -191 -198 -178 -125 -117 -93 -83 -100 -118 -144 -160 -176 -224 0 0 0 0 0 0 0 0 0
0 0 -1 -0 -1 0 0 -8 -59 -46 -61 -70 -109 -73 0 -220 0 0 0 0 0 0 -360 -351 -314 -325 -326 -289 -255 -239 -229 -215 -178 -165 -194 -206 -200 -182 -164 -198 -206 0 0 0 0 0 0 0 0
0 0 0 -1 -4 0 0 0 0 -51 -82 -114 -116 -96 0 0 0 0 0 0 -67 -111 0 0 0 0 -244 -373 -299 -243 -223 -242 -251 -176 -231 -220 -154 -232 -161 -207 0 -14 0 0 0 -35 0 0 0
0 0 0 0 0 -1 0 0 0 -124 -111 -77 -93 -104 -76 0 0 0 0 -162 -128 -136 -103 -151 -164 0 0 -97 -303 -227 -267 -100 -107 -103 -119 -139 -124 -105 -140 -140 -208 -190 -197 -180 -145 -120 -129 -85 0
0 0 0 0 0 0 0 0 0 -206 -166 -121 -116 -105 -95 -104 -102 0 -226 -158 -131 -134 -147 -162 -150 0 0 -140 -112 -149 -116 -107 -91 -97 -119 -136 -119 -92 -150 -156 0 0 0 0 0 0 0 0 0
0 0 0 0 0 0 0 0 0 0 -80 -153 -123 -87 -78 -76 0 0 0 -140 -110 -98 -75 -159 -158 -197 -160 -194 -115 -125 -97 -74 -62 -88 -94 0 0 0 0 0 0 0 0 0 0 0 0 0 0
0 0 0 0 0 0 0 0 0 0 -93 -142 -106 -94 -76 -130 0 0 -119 -148 -94 -86 -58 -28 -48 -118 -137 -83 -127 -122 -98 -63 -91 -76 0 -12 0 0 0 0 0 0 0 0 0 0 0 0 0
0 0 0 0 0 0 0 0 0 0 -130 -104 -83 -90 -95 -125 -104 -149 -141 -117 -112 -76 -65 -31 -25 -62 -96 -56 -42 -77 -39 -59 -74 -40 0 0 0 0 0 0 0 0 0 0 0 0 0 0 0
0 0 0 0 0 0 0 0 0 0 -89 -88 -89 -88 -121 -156 -96 -82 -101 -80 -47 -124 -85 -53 -42 -38 -156 -116 -78 -101 0 -81 -4 0 0 0 0 0 0 0 0 0 0 0 0 0 0 0 0
0 0 0 0 0 0 0 0 0 0 0 -114 -100 -74 -101 -105 -68 -57 -65 -42 -18 -126 -69 -61 -38 -42 -122 -99 -51 -101 -6 0 0 0 0 0 0 0 0 0 0 0 0 0 0 0 0 0 0
0 0 -18 -26 0 0 0 0 0 0 0 0 -108 -60 -65 -63 -34 -27 -18 -12 -274 -106 -60 -38 -27 -42 -25 -62 -77 -50 -52 0 0 0 0 0 -5 0 0 0 0 0 0 0 0 0 0 0 0
0 0 0 0 0 0 0 0 0 0 0 0 0 0 0 0 -37 -14 -12 -65 -204 -108 -45 -28 -48 -68 -59 -118 -115 -29 0 -47 -24 -1 0 0 -4 -4 -2 -2 -4 0 0 0 0 0 0 0 0
0 0 0 0 0 0 0 0 0 0 0 0 0 0 0 0 -83 -20 -137 -124 -140 -88 -83 -78 -59 -130 -94 -56 -28 -15 -19 -5 -3 0 0 -11 -17 -16 0 0 -1 0 0 0 0 0 0 0 0
0 0 0 0 0 0 0 0 0 0 0 0 0 0 0 -123 -73 -33 -37 -142 -112 -93 -153 -32 -51 -64 -43 -12 -4 -17 -6 0 -1 -5 -12 -9 -13 -6 0 0 0 0 0 0 0 0 0 0 0
0 0 0 0 0 0 0 0 0 0 0 0 0 -93 -156 -124 -46 -37 -41 -37 -133 -102 -100 -23 0 0 -3 -16 -20 -11 -1 -1 -3 0 0 0 0 0 0 0 0 0 0 0 0 0 0 0 0
0 0 0 0 0 0 0 0 0 0 0 0 0 -7 -86 -61 -61 -33 -41 -24 -26 0 0 0 0 0 0 0 0 0 0 0 0 0 0 0 0 0 0 0 0 0 0 0 0 0 0 -1 0
0 0 0 0 0 0 0 0 0 0 0 0 0 0 0 0 0 0 0 0 0 0 0 0 0 0 0 0 0 0 0 0 0 0 0 -0 -3 -4 -0 0 0 0 0 0 0 0 0 0 -9
0 0 0 0 0 0 0 0 0 0 0 0 0 0 0 0 0 0 0 0 0 0 0 0 0 0 0 0 0 0 0 0 0 -4 -2 0 -1 -3 -1 0 0 0 0 0 0 0 -0 -3 -0
0 0 0 0 -46 -4 -3 -7 0 -1 -2 -4 -3 0 0 0 0 0 0 0 0 0 0 0 0 0 0 0 0 0 0 -0 -0 -0 -4 -6 0 -0 -0 0 0 0 0 0 0 0 0 0 -1
0 0 0 0 -15 -12 0 0 -8 -24 -1 -1 -1 0 0 0 0 0 0 0 0 0 0 0 -0 -1 0 0 0 -3 -2 -1 0 0 0 -1 -0 0 0 0 0 0 0 0 0 0 -13 -16 0
0 0 0 0 0 0 0 0 0 0 -1 -1 -1 0 0 0 0 0 0 0 0 -1 -2 -1 -1 0 0 0 0 0 0 0 0 0 0 0 0 0 0 0 0 0 0 0 -7 -16 0 -6 -16
0 0 0 0 0 0 0 0 -2 0 -3 0 0 0 0 0 -4 0 0 0 0 0 0 0 -3 -0 0 0 0 0 0 0 0 0 0 0 0 0 -2 -0 0 0 0 0 0 0 0 0 0
0 0 0 0 0 0 0 0 0 0 -1 0 0 0 0 0 0 -0 0 -7 0 -5 0 0 0 0 0 0 0 0 0 0 -3 0 -1 -0 -1 -1 0 -1 -17 0 0 0 0 0 0 0 0
0 0 0 0 0 0 0 0 0 -1 -7 -3 -2 0 0 0 0 -12 0 0 0 0 0 0 0 0 0 0 0 -5 -6 -4 -0 -1 -3 -2 -3 -2 0 -1 0 0 0 0 0 0 0 0 0
Wind_Speed
nan nan nan nan nan nan nan nan nan nan nan nan nan nan nan nan nan 31 33 34 37 40 37 36 33 32 30 26 21 20 17 17 16 9 6 5 4 5 5 7 8 9 11 11 12 10 12 12 14
nan nan nan nan nan nan nan nan nan nan nan nan nan nan nan 34 36 43 35 38 40 38 33 26 29 29 26 25 22 19 19 16 9 8 8 8 8 8 10 12 13 15 16 16 16 14 15 14 13
nan nan nan nan nan nan nan nan nan nan nan nan nan nan nan 41 45 41 40 39 35 34 23 25 26 25 25 23 19 18 15 9 9 10 13 13 13 14 14 16 16 17 nan nan nan nan nan nan nan
nan nan nan nan nan nan nan nan nan nan nan nan nan nan 30 32 37 39 39 35 32 23 21 22 20 20 16 12 11 9 10 10 12 14 16 18 19 19 19 20 nan nan nan nan nan nan nan nan nan
nan nan nan nan nan nan nan nan nan nan nan nan nan nan nan 31 42 36 32 27 26 20 18 15 11 9 9 8 8 8 10 12 16 18 19 22 23 22 23 nan nan nan nan nan nan nan nan nan nan
nan nan nan nan nan nan nan nan nan nan nan nan nan nan 27 35 35 30 28 21 21 19 11 5 7 9 9 10 11 11 15 16 18 20 22 24 26 24 nan nan nan nan nan nan nan nan nan nan nan
nan nan nan nan nan nan nan nan nan nan nan nan nan nan nan 17 23 nan 18 18 16 9 6 7 6 8 11 12 14 15 17 20 21 21 23 25 27 26 26 nan nan nan nan nan nan nan nan nan nan
nan nan nan nan nan nan nan nan nan nan nan nan nan nan nan nan nan nan nan nan nan nan nan nan nan nan nan 11 16 17 18 20 21 22 26 26 26 28 28 nan nan nan nan nan nan nan nan nan nan
nan nan nan nan nan nan nan nan nan nan 29 nan nan nan nan nan nan nan nan nan nan nan nan nan nan nan nan nan 16 18 19 21 24 24 27 27 24 nan nan nan nan nan nan nan nan nan nan nan nan
nan nan nan nan nan nan nan nan nan nan nan nan nan nan nan nan nan nan nan nan nan nan nan nan nan nan nan nan nan nan nan 18 20 20 22 23 23 23 nan nan nan nan nan nan nan nan nan nan nan
nan nan nan nan nan nan nan nan nan nan nan nan nan nan nan nan nan nan nan nan 13 nan nan nan 16 nan nan nan nan nan 20 20 23 23 23 26 26 29 28 nan nan nan nan nan nan nan nan nan nan
nan nan nan nan nan nan nan nan nan nan nan 16 nan 19 9 nan nan nan nan nan 12 15 19 nan 18 nan nan nan nan nan 24 24 24 27 nan nan nan nan nan nan nan nan nan nan nan nan nan nan nan
nan nan nan nan nan nan nan nan nan nan nan 10 11 14 17 nan nan nan nan nan 16 19 23 27 nan nan nan nan 18 28 29 28 28 nan nan nan nan nan nan nan nan nan nan nan nan nan nan nan nan
nan nan nan nan nan nan nan nan nan nan 11 12 11 11 13 nan nan nan nan nan 21 21 18 23 26 nan nan nan nan 38 nan nan nan nan nan nan nan nan nan nan nan nan nan nan nan nan nan nan nan
nan nan nan nan nan nan nan nan nan nan nan 18 15 11 10 12 14 16 nan 25 30 29 28 23 28 28 nan nan nan nan nan nan nan nan nan nan nan nan nan nan nan nan nan nan nan nan nan nan nan
nan nan nan nan nan nan nan nan nan nan nan 12 13 13 13 12 14 12 12 14 27 35 35 35 28 nan nan 32 nan nan nan nan nan nan nan nan nan nan nan nan nan nan nan nan nan nan nan nan nan
nan nan nan nan nan nan nan nan nan nan nan nan nan 10 13 nan 18 16 17 27 30 34 38 29 28 35 nan nan nan nan nan nan nan nan nan nan nan nan nan nan nan nan nan nan nan nan nan nan nan
nan nan nan nan nan nan nan nan nan nan nan nan nan nan nan nan nan 28 28 30 35 36 36 29 32 nan nan nan nan nan nan nan nan nan nan nan nan nan nan nan nan nan nan nan nan nan nan nan nan
nan nan nan nan nan nan nan nan nan nan nan nan nan nan nan nan nan 35 33 38 42 36 37 40 nan nan nan nan nan nan nan nan nan nan nan nan nan nan nan nan nan nan nan nan nan nan nan nan nan
nan nan nan nan nan nan nan nan nan nan nan nan nan nan nan nan nan 35 nan 35 32 38 nan nan nan nan nan nan nan nan nan nan nan nan nan nan nan nan nan nan nan nan nan nan nan nan nan nan nan
nan nan nan nan nan nan nan nan nan nan nan nan nan nan nan nan nan 34 nan nan nan nan nan nan nan nan nan nan nan nan nan nan nan nan nan nan nan nan nan nan nan nan nan nan nan nan nan nan nan
nan nan nan nan nan nan nan nan nan nan nan nan nan nan nan 36 nan nan nan nan nan nan nan nan nan nan nan nan nan nan nan nan nan nan nan nan nan nan nan nan nan nan nan nan nan nan nan nan nan
nan nan nan nan nan nan nan nan nan nan nan nan nan nan nan nan nan nan nan nan nan nan nan nan nan nan nan nan nan nan nan nan nan nan nan nan nan nan nan nan nan nan nan nan nan nan nan nan nan
nan nan nan nan nan nan nan nan nan nan nan nan nan nan nan nan nan nan nan nan nan nan nan nan nan nan nan nan nan nan nan nan nan nan nan nan nan nan nan nan nan nan nan nan nan nan nan nan nan
nan nan nan nan nan nan nan nan nan nan nan nan nan nan nan nan nan nan nan nan nan nan nan nan nan nan nan nan nan nan nan nan nan nan nan nan nan nan nan nan nan nan nan nan nan nan nan nan nan
nan nan nan nan nan nan nan nan nan nan nan nan nan nan nan nan nan nan nan nan nan nan nan nan nan nan nan nan nan nan nan nan nan nan nan nan nan nan nan nan nan nan nan nan nan nan nan nan nan
nan nan nan nan nan nan nan nan nan nan nan nan nan nan nan nan nan nan nan nan nan nan nan nan nan nan nan nan nan nan nan nan nan nan nan nan nan nan nan nan nan nan nan nan nan nan nan nan nan
nan nan nan nan nan nan nan nan nan nan nan nan nan nan nan nan nan nan nan nan nan nan nan nan nan nan nan nan nan nan nan nan nan nan nan nan nan nan nan nan nan nan nan nan nan nan nan nan nan
nan nan nan nan nan nan nan nan nan nan nan nan nan nan nan nan nan nan nan nan nan nan nan nan nan nan nan nan nan nan nan nan nan nan nan nan nan nan nan nan nan nan nan nan nan nan nan nan nan
nan nan nan nan nan nan nan nan nan nan nan nan nan nan nan nan nan nan nan nan nan nan nan nan nan nan nan nan nan nan nan nan nan nan nan nan nan nan nan nan nan nan nan nan nan nan nan nan nan
Wind_Direction
nan nan nan nan nan nan nan nan nan nan nan nan nan nan nan nan nan 287 274 284 281 279 287 294 294 291 290 288 289 288 282 277 275 274 283 295 313 318 295 279 270 265 261 260 262 273 277 276 270
nan nan nan nan nan nan nan nan nan nan nan nan nan nan nan 240 263 277 272 282 282 281 289 293 289 289 287 284 280 278 282 280 270 278 285 281 286 285 278 275 265 261 258 259 258 259 260 266 272
nan nan nan nan nan nan nan nan nan nan nan nan nan nan nan 277 278 278 277 278 274 278 287 289 286 288 290 290 281 276 275 263 281 289 285 287 286 282 281 278 276 273 nan nan nan nan nan nan nan
nan nan nan nan nan nan nan nan nan nan nan nan nan nan 259 275 269 268 275 276 276 275 280 281 283 292 294 285 281 274 267 281 283 283 289 293 295 294 287 278 nan nan nan nan nan nan nan nan nan
nan nan nan nan nan nan nan nan nan nan nan nan nan nan nan 255 270 271 271 271 276 265 266 270 282 276 281 287 285 283 280 283 291 293 295 295 295 295 294 nan nan nan nan nan nan nan nan nan nan
nan nan nan nan nan nan nan nan nan nan nan nan nan nan 265 279 274 272 267 265 265 265 258 248 270 282 285 288 301 304 303 300 293 297 301 304 304 304 nan nan nan nan nan nan nan nan nan nan nan
nan nan nan nan nan nan nan nan nan nan nan nan nan nan nan 266 275 nan 267 255 250 244 224 211 236 284 299 311 302 298 299 301 303 309 309 308 307 307 303 nan nan nan nan nan nan nan nan nan nan
nan nan nan nan nan nan nan nan nan nan nan nan nan nan nan nan nan nan nan nan nan nan nan nan nan nan nan 282 292 296 300 302 308 313 308 307 308 308 308 nan nan nan nan nan nan nan nan nan nan
nan nan nan nan nan nan nan nan nan nan 294 nan nan nan nan nan nan nan nan nan nan nan nan nan nan nan nan nan 295 307 318 317 313 311 311 305 307 nan nan nan nan nan nan nan nan nan nan nan nan
nan nan nan nan nan nan nan nan nan nan nan nan nan nan nan nan nan nan nan nan nan nan nan nan nan nan nan nan nan nan nan 294 292 303 308 310 317 314 nan nan nan nan nan nan nan nan nan nan nan
nan nan nan nan nan nan nan nan nan nan nan nan nan nan nan nan nan nan nan nan 323 nan nan nan 300 nan nan nan nan nan 288 298 305 310 314 316 310 311 312 nan nan nan nan nan nan nan nan nan nan
nan nan nan nan nan nan nan nan nan nan nan 331 nan 325 305 nan nan nan nan nan 292 302 298 nan 295 nan nan nan nan nan 300 302 303 309 nan nan nan nan nan nan nan nan nan nan nan nan nan nan nan
nan nan nan nan nan nan nan nan nan nan nan 315 314 332 332 nan nan nan nan nan 306 313 310 297 nan nan nan nan 298 309 299 297 303 nan nan nan nan nan nan nan nan nan nan nan nan nan nan nan nan
nan nan nan nan nan nan nan nan nan nan 303 329 336 343 338 nan nan nan nan nan 321 305 295 300 302 nan nan nan nan 319 nan nan nan nan nan nan nan nan nan nan nan nan nan nan nan nan nan nan nan
nan nan nan nan nan nan nan nan nan nan nan 335 350 1 354 347 339 343 nan 325 330 321 320 318 312 302 nan nan nan nan nan nan nan nan nan nan nan nan nan nan nan nan nan nan nan nan nan nan nan
nan nan nan nan nan nan nan nan nan nan nan 352 1 352 348 338 342 330 296 321 319 317 320 316 310 nan nan 314 nan nan nan nan nan nan nan nan nan nan nan nan nan nan nan nan nan nan nan nan nan
nan nan nan nan nan nan nan nan nan nan nan nan nan 310 269 nan 274 271 290 300 310 312 307 304 306 313 nan nan nan nan nan nan nan nan nan nan nan nan nan nan nan nan nan nan nan nan nan nan nan
nan nan nan nan nan nan nan nan nan nan nan nan nan nan nan nan nan 289 284 290 295 300 298 295 302 nan nan nan nan nan nan nan nan nan nan nan nan nan nan nan nan nan nan nan nan nan nan nan nan
nan nan nan nan nan nan nan nan nan nan nan nan nan nan nan nan nan 290 288 293 296 295 299 302 nan nan nan nan nan nan nan nan nan nan nan nan nan nan nan nan nan nan nan nan nan nan nan nan nan
nan nan nan nan nan nan nan nan nan nan nan nan nan nan nan nan nan 290 nan 284 283 294 nan nan nan nan nan nan nan nan nan nan nan nan nan nan nan nan nan nan nan nan nan nan nan nan nan nan nan
nan nan nan nan nan nan nan nan nan nan nan nan nan nan nan nan nan 291 nan nan nan nan nan nan nan nan nan nan nan nan nan nan nan nan nan nan nan nan nan nan nan nan nan nan nan nan nan nan nan
nan nan nan nan nan nan nan nan nan nan nan nan nan nan nan 288 nan nan nan nan nan nan nan nan nan nan nan nan nan nan nan nan nan nan nan nan nan nan nan nan nan nan nan nan nan nan nan nan nan
nan nan nan nan nan nan nan nan nan nan nan nan nan nan nan nan nan nan nan nan nan nan nan nan nan nan nan nan nan nan nan nan nan nan nan nan nan nan nan nan nan nan nan nan nan nan nan nan nan
nan nan nan nan nan nan nan nan nan nan nan nan nan nan nan nan nan nan nan nan nan nan nan nan nan nan nan nan nan nan nan nan nan nan nan nan nan nan nan nan nan nan nan nan nan nan nan nan nan
nan nan nan nan nan nan nan nan nan nan nan nan nan nan nan nan nan nan nan nan nan nan nan nan nan nan nan nan nan nan nan nan nan nan nan nan nan nan nan nan nan nan nan nan nan nan nan nan nan
nan nan nan nan nan nan nan nan nan nan nan nan nan nan nan nan nan nan nan nan nan nan nan nan nan nan nan nan nan nan nan nan nan nan nan nan nan nan nan nan nan nan nan nan nan nan nan nan nan
nan nan nan nan nan nan nan nan nan nan nan nan nan nan nan nan nan nan nan nan nan nan nan nan nan nan nan nan nan nan nan nan nan nan nan nan nan nan nan nan nan nan nan nan nan nan nan nan nan
nan nan nan nan nan nan nan nan nan nan nan nan nan nan nan nan nan nan nan nan nan nan nan nan nan nan nan nan nan nan nan nan nan nan nan nan nan nan nan nan nan nan nan nan nan nan nan nan nan
nan nan nan nan nan nan nan nan nan nan nan nan nan nan nan nan nan nan nan nan nan nan nan nan nan nan nan nan nan nan nan nan nan nan nan nan nan nan nan nan nan nan nan nan nan nan nan nan nan
nan nan nan nan nan nan nan nan nan nan nan nan nan nan nan nan nan nan nan nan nan nan nan nan nan nan nan nan nan nan nan nan nan nan nan nan nan nan nan nan nan nan nan nan nan nan nan nan nan